Overview Statistics Trail Chart Weather Telemetry Raw packets
 

This is the latest recevied weather packets stored in our database for station/object K7FLA. If no packets are shown the sender has not sent any weather packets the latest 10 day(s).

<< 63 64 65 66 67 68 69 >>
Time Temp. Humidity Pressure Rain* Wind** Luminosity Snow
1788228225 25.56° C 31% 1094.5 hPa 0 mm - 10 W/m² -
1788227918 26.11° C 30% 1094.6 hPa 0 mm - 13 W/m² -
1788227615 26.11° C 31% 1094.3 hPa 0 mm - 16 W/m² -
1788227314 26.67° C 30% 1094.5 hPa 0 mm - 19 W/m² -
1788227010 26.67° C 30% 1094.6 hPa 0 mm - 22 W/m² -
1788226705 27.22° C 30% 1094.7 hPa 0 mm - 25 W/m² -
1788226402 27.22° C 30% 1094.5 hPa 0 mm - 28 W/m² -
1788226097 27.22° C 29% 1094.3 hPa 0 mm - 30 W/m² -
1788225796 27.78° C 30% 1094.2 hPa 0 mm - 33 W/m² -
1788225487 27.78° C 29% 1094.2 hPa 0 mm - 37 W/m² -
1788225182 27.78° C 29% 1094.3 hPa 0 mm - 49 W/m² -
1788224875 28.33° C 28% 1094.3 hPa 0 mm - 58 W/m² -
1788224570 28.33° C 30% 1094.3 hPa 0 mm - 69 W/m² -
1788224269 28.33° C 29% 1094.2 hPa 0 mm - 80 W/m² -
1788223981 28.89° C 29% 1094.3 hPa 0 mm - 85 W/m² -
1788223658 28.89° C 28% 1094.3 hPa 0 mm - 91 W/m² -
1788223354 28.89° C 28% 1094.5 hPa 0 mm - 104 W/m² -
1788223054 29.44° C 28% 1094.3 hPa 0 mm - 115 W/m² -
1788222754 29.44° C 27% 1094.2 hPa 0 mm - 127 W/m² -
1788222452 30° C 28% 1094.1 hPa 0 mm - 141 W/m² -
1788222148 30° C 29% 1094.1 hPa 0 mm - 152 W/m² -
1788221843 30° C 29% 1094.2 hPa 0 mm - 163 W/m² -
1788221538 30° C 28% 1094.1 hPa 0 mm - 185 W/m² -
1788221228 30.56° C 29% 1094 hPa 0 mm - 200 W/m² -
1788220923 30.56° C 29% 1094 hPa 0 mm - 212 W/m² -

* Rain latest hour (hover to see other rain measurements)
** Current wind speed in m/s (hover to see current wind gust speed)